SZ-12 MODULE (49221 NORAD) Tracking and Keplerian Element Data

This shows tracking and keplerian element data for the satellite.

Feedback or suggestion? Click here.




ElementValue
Catalog49221
NameSZ-12 MODULE
Epoch Orbit634
Epoch Day300.86304707
Epoch Year2021
RAAN194.7179
Inclination41.5564
Eccentricity0.0006141
Argument of Perigee237.0482
Mean Anonmoly210.1642
Mean Motion15.60750924
Decay Rate0.00010118
L11 49221U 21053C 21300.86304707 .00010118 00000-0 12198-3 0 9995
L22 49221 41.5564 194.7179 0006141 237.0482 210.1642 15.60750924 6349

Live tracking and technical data element details for SZ-12 MODULE (NORAD 49221). SZ-12 MODULE can be tracked NOW for your location showing map with azimuth and elevation plus other details from your city location.

Track the satellite on the map from your city or location and see movement details for azimuth, elevation, latitude, longitude, range, height, and movement on the map or in text.







IsCatalogInMostPopularTable: catalog: 49221, numindb: 7
Update: records affected: 1



GetName: 49221 SZ-12 MODULE

Hit Count: updated at: Thu, 28 Oct 2021 11:48:50 GMT